Tracking 30143 objects as of 20-Jan-2025
HD Live streaming from Space Station
objects crossing your sky now

STARLINK-6337

Track STARLINK-6337 now!
10-day predictions
STARLINK-6337 is classified as:


NORAD ID: 56528
Int'l Code: 2023-065AB
Perigee: 565.3 km
Apogee: 566.9 km
Inclination: 43.0 °
Period: 95.8 minutes
Semi major axis: 6937 km
RCS: Unknown
Launch date: May 14, 2023
Source: United States (US)
Launch site: AIR FORCE EASTERN TEST RANGE (AFETR)
Your satellite tracking list
Your tracking list is empty




NASA's NSSDC Master Catalog

Two Line Element Set (TLE):
1 56528U 23065AB  25020.15791997  .00004684  00000-0  36123-3 0  9999
2 56528  43.0094 296.9367 0001112 286.0191  74.0529 15.02570433 93641
Source of the keplerian elements: AFSPC